DF1NIF-13 Weather Reports


time (UTC)temp
C
wind
direction
speed
KPH
gust
KPH
rain 1hr
cm
rain 24hr
cm
rain mn
cm
humidity
%
barometer
mb
20260902091723 18 98 1.6 4.8 0.00 0.00 0.00 59 975.0
20260902091259 18 98 3.2 4.8 0.00 0.00 0.00 59 975.1
20260902090823 18 98 3.2 8.0 0.00 0.00 0.00 58 975.1
20260902090347 18 78 4.8 14.5 0.00 0.00 0.00 59 975.2
20260902085938 19 101 4.8 1.6 0.00 0.00 0.00 60 975.0
20260902085453 18 29 1.6 1.6 0.00 0.00 0.00 60 975.2
20260902085023 18 113 8.0 1.6 0.00 0.00 0.00 60 975.1
20260902084538 18 114 3.2 4.8 0.00 0.00 0.00 64 975.1
20260902084118 19 115 1.6 8.0 0.00 0.00 0.00 64 975.2
20260902083643 19 111 1.6 4.8 0.00 0.00 0.00 64 975.2
20260902083203 19 124 0.0 4.8 0.00 0.00 0.00 64 975.1
20260902082748 18 166 1.6 1.6 0.00 0.00 0.00 70 975.0
20260902082313 18 104 0.0 1.6 0.00 0.00 0.00 70 975.1
20260902081846 17 104 0.0 1.6 0.00 0.00 0.00 70 975.2
20260902081413 17 104 1.6 4.8 0.00 0.00 0.00 70 975.2
20260902080953 17 104 1.6 0.0 0.00 0.00 0.00 70 975.2
20260902080508 17 104 1.6 4.8 0.00 0.00 0.00 70 975.4
20260902080055 17 104 3.2 4.8 0.00 0.00 0.00 70 975.2
20260902075628 17 104 3.2 4.8 0.00 0.00 0.00 70 975.2
20260902075148 16 104 0.0 1.6 0.00 0.00 0.00 70 975.2
20260902074713 16 104 0.0 1.6 0.00 0.00 0.00 70 975.2
20260902074303 15 104 1.6 1.6 0.00 0.00 0.00 70 975.4
20260902073828 15 104 1.6 1.6 0.00 0.00 0.00 74 975.5
20260902073418 16 104 1.6 1.6 0.00 0.00 0.00 74 975.2
20260902072933 16 104 1.6 1.6 0.00 0.00 0.00 74 975.0
20260902072523 15 104 0.0 4.8 0.00 0.00 0.00 74 975.1
20260902072115 15 104 0.0 0.0 0.00 0.00 0.00 77 974.9
20260902071633 15 92 1.6 0.0 0.00 0.00 0.00 79 975.1
20260902071203 15 92 0.0 1.6 0.00 0.00 0.00 79 975.3
20260902070702 15 92 0.0 1.6 0.00 0.00 0.00 79 975.0
20260902070228 15 92 0.0 1.6 0.00 0.00 0.00 79 974.8
20260902065828 15 92 1.6 1.6 0.00 0.00 0.00 79 975.0
20260902065403 15 92 0.0 0.0 0.00 0.00 0.00 79 974.9
20260902064948 14 92 0.0 0.0 0.00 0.00 0.00 79 975.0
20260902064518 13 92 0.0 0.0 0.00 0.00 0.00 79 974.9
20260902064048 13 92 0.0 0.0 0.00 0.00 0.00 79 974.9
20260902063623 13 92 0.0 1.6 0.00 0.00 0.00 79 975.0
20260902063143 13 92 0.0 1.6 0.00 0.00 0.00 79 975.1
20260902062718 13 46 0.0 1.6 0.00 0.00 0.00 79 974.9
20260902062315 13 46 0.0 1.6 0.00 0.00 0.00 79 975.1
20260902061843 12 46 0.0 1.6 0.00 0.00 0.00 79 974.9
20260902061428 12 46 0.0 1.6 0.00 0.00 0.00 80 975.1
20260902060945 12 46 0.0 1.6 0.00 0.00 0.00 88 975.0
20260902060548 12 46 1.6 1.6 0.00 0.00 0.00 88 975.0
20260902060118 12 14 1.6 0.0 0.00 0.00 0.00 88 974.8
20260902055653 11 331 1.6 0.0 0.00 0.00 0.00 88 975.1
20260902055213 11 331 1.6 0.0 0.00 0.00 0.00 88 975.0
20260902054728 11 331 0.0 1.6 0.00 0.00 0.00 88 975.2
20260902054308 11 331 0.0 1.6 0.00 0.00 0.00 88 975.0
20260902053858 11 331 0.0 1.6 0.00 0.00 0.00 88 975.1
20260902053443 11 331 0.0 1.6 0.00 0.00 0.00 88 975.0
20260902053013 11 331 0.0 1.6 0.00 0.00 0.00 88 974.7
20260902052548 11 331 0.0 1.6 0.00 0.00 0.00 88 975.0
20260902052133 11 331 0.0 0.0 0.00 0.00 0.00 88 974.8
20260902051708 11 331 0.0 0.0 0.00 0.00 0.00 88 974.9
20260902051253 11 331 0.0 0.0 0.00 0.00 0.00 88 975.0
20260902050848 10 332 0.0 0.0 0.00 0.00 0.00 88 974.9
20260902050403 10 332 0.0 0.0 0.00 0.00 0.00 91 974.9
20260902045943 10 332 0.0 1.6 0.00 0.00 0.00 91 975.0
20260902045523 10 332 1.6 1.6 0.00 0.00 0.00 91 975.0
20260902045048 10 332 1.6 1.6 0.00 0.00 0.00 91 974.8
20260902044633 10 332 1.6 1.6 0.00 0.00 0.00 91 974.9
20260902044203 10 332 0.0 1.6 0.00 0.00 0.00 91 975.0
20260902043753 10 332 0.0 1.6 0.00 0.00 0.00 91 974.7
20260902043255 10 332 0.0 1.6 0.00 0.00 0.00 92 974.9
20260902042818 10 332 0.0 1.6 0.00 0.00 0.00 92 974.8
20260902042343 10 332 0.0 1.6 0.00 0.00 0.00 92 974.9
20260902041933 10 332 0.0 1.6 0.00 0.00 0.00 92 974.7
20260902041503 10 332 0.0 1.6 0.00 0.00 0.00 94 974.7
20260902041033 10 332 0.0 1.6 0.00 0.00 0.00 94 974.7
20260902040558 10 332 0.0 0.0 0.00 0.00 0.00 94 974.7
20260902040148 10 332 0.0 0.0 0.00 0.00 0.00 95 975.0
20260902035703 10 332 0.0 0.0 0.00 0.00 0.00 95 974.9
20260902035228 10 332 0.0 0.0 0.00 0.00 0.00 95 974.7
20260902034758 10 332 0.0 0.0 0.00 0.00 0.00 95 974.9
20260902034258 10 332 0.0 1.6 0.00 0.00 0.00 95 974.9
20260902033823 10 332 1.6 1.6 0.00 0.00 0.00 95 974.8
20260902033328 10 332 1.6 1.6 0.00 0.00 0.00 95 974.8
20260902032833 10 332 0.0 0.0 0.00 0.00 0.00 94 974.9
20260902032403 10 332 0.0 0.0 0.00 0.00 0.00 94 974.7
20260902031953 10 332 0.0 0.0 0.00 0.00 0.00 94 974.7
20260902031505 10 332 0.0 0.0 0.00 0.00 0.00 94 974.8
20260902031053 10 332 0.0 1.6 0.00 0.00 0.00 94 974.8
20260902030555 10 332 1.6 1.6 0.00 0.00 0.00 94 974.9
20260902030128 10 332 3.2 1.6 0.00 0.00 0.00 93 974.7
20260902025653 10 332 0.0 1.6 0.00 0.00 0.00 93 974.8
20260902025243 10 332 0.0 1.6 0.00 0.00 0.00 93 974.6
20260902024828 10 332 0.0 1.6 0.00 0.00 0.00 93 974.8
20260902024413 10 332 0.0 1.6 0.00 0.00 0.00 93 974.9
20260902023923 10 332 0.0 1.6 0.00 0.00 0.00 93 975.0
20260902023435 10 332 0.0 1.6 0.00 0.00 0.00 93 974.9
20260902022947 10 330 1.6 0.0 0.00 0.00 0.00 93 975.0
20260902022523 10 330 3.2 1.6 0.00 0.00 0.00 93 974.9
20260902022043 10 330 1.6 1.6 0.00 0.00 0.00 93 974.7
20260902021613 10 330 1.6 1.6 0.00 0.00 0.00 93 974.9
20260902021128 10 330 1.6 1.6 0.00 0.00 0.00 93 974.9
20260902020653 10 330 1.6 1.6 0.00 0.00 0.00 93 974.9
20260902020243 10 330 0.0 0.0 0.00 0.00 0.00 90 974.7
20260902015805 10 330 0.0 0.0 0.00 0.00 0.00 90 974.9
20260902015403 10 330 0.0 0.0 0.00 0.00 0.00 90 975.0
20260902014923 10 330 0.0 0.0 0.00 0.00 0.00 90 974.9
20260902014453 11 330 1.6 0.0 0.00 0.00 0.00 90 975.0
20260902014015 11 330 0.0 0.0 0.00 0.00 0.00 90 975.1
20260902013608 11 330 0.0 0.0 0.00 0.00 0.00 90 975.0
20260902013138 11 330 0.0 1.6 0.00 0.00 0.00 90 975.1
20260902012713 11 330 0.0 1.6 0.00 0.00 0.00 90 975.0
20260902012308 11 330 1.6 0.0 0.00 0.00 0.00 90 975.2
20260902011818 11 330 1.6 0.0 0.00 0.00 0.00 90 975.0
20260902011343 11 330 1.6 0.0 0.00 0.00 0.00 90 975.2
20260902010923 11 330 1.6 0.0 0.00 0.00 0.00 90 975.1
20260902010505 11 330 1.6 0.0 0.00 0.00 0.00 89 975.1
20260902010055 11 330 1.6 0.0 0.00 0.00 0.00 90 975.2
20260902005628 11 330 1.6 0.0 0.00 0.00 0.00 90 975.2
20260902005223 11 330 1.6 0.0 0.00 0.00 0.00 90 975.1
20260902004808 11 330 1.6 0.0 0.00 0.00 0.00 89 975.3
20260902004343 11 330 1.6 0.0 0.00 0.00 0.00 89 975.0
20260902003918 11 330 1.6 0.0 0.00 0.00 0.00 89 975.1
20260902003423 11 330 1.6 0.0 0.00 0.00 0.00 89 975.2
20260902003003 11 330 1.6 0.0 0.00 0.00 0.00 87 975.1
20260902002523 11 330 1.6 1.6 0.00 0.00 0.00 87 975.2
20260902002053 11 330 1.6 0.0 0.00 0.00 0.00 87 975.3
20260902001608 11 331 0.0 1.6 0.00 0.00 0.00 87 975.0
20260902001138 11 331 0.0 1.6 0.00 0.00 0.00 87 975.3
20260902000728 11 331 0.0 0.0 0.00 0.00 0.00 87 975.2
20260902000234 11 331 0.0 0.0 0.00 0.00 0.00 87 975.2
20260901235808 11 331 1.6 0.0 0.00 0.00 0.00 87 975.4
20260901235335 12 331 1.6 0.0 0.00 0.00 0.00 87 975.2
20260901234908 12 331 3.2 0.0 0.00 0.00 0.00 87 975.1
20260901234408 12 331 1.6 0.0 0.00 0.00 0.00 87 975.1
20260901233953 12 331 0.0 0.0 0.00 0.00 0.00 87 974.9
20260901233538 12 331 0.0 0.0 0.00 0.00 0.00 87 975.0
20260901233118 12 331 0.0 0.0 0.00 0.00 0.00 87 974.9
20260901232633 12 331 1.6 0.0 0.00 0.00 0.00 87 975.1
20260901232218 12 331 0.0 0.0 0.00 0.00 0.00 87 975.1
20260901231758 12 331 1.6 1.6 0.00 0.00 0.00 87 975.0
20260901231343 12 330 0.0 1.6 0.00 0.00 0.00 87 975.1
20260901230935 12 330 0.0 0.0 0.00 0.00 0.00 87 975.1
20260901230453 12 330 1.6 1.6 0.00 0.00 0.00 87 975.2
20260901230013 12 318 1.6 1.6 0.00 0.00 0.00 87 975.1
20260901225533 12 318 3.2 1.6 0.00 0.00 0.00 87 975.2
20260901225058 12 318 1.6 1.6 0.00 0.00 0.00 87 975.2
20260901224633 12 318 0.0 1.6 0.00 0.00 0.00 87 975.2
20260901224148 12 318 0.0 0.0 0.00 0.00 0.00 87 975.2
20260901223733 12 318 0.0 0.0 0.00 0.00 0.00 87 975.1
20260901223303 12 318 0.0 0.0 0.00 0.00 0.00 87 975.0
20260901222833 12 318 0.0 0.0 0.00 0.00 0.00 87 975.1
20260901222338 15 318 0.0 0.0 0.00 0.00 0.00 87 975.1
20260901221858 15 318 0.0 0.0 0.00 0.00 0.00 87 975.0
20260901221438 15 318 0.0 0.0 0.00 0.00 0.00 87 975.0
20260901220948 15 318 0.0 0.0 0.00 0.00 0.00 86 975.1
20260901220508 15 318 0.0 0.0 0.00 0.00 0.00 86 975.0
20260901220038 15 318 0.0 0.0 0.00 0.00 0.00 85 975.1
20260901215603 15 318 0.0 0.0 0.00 0.00 0.00 80 974.9
20260901215133 15 318 0.0 0.0 0.00 0.00 0.00 80 975.3
20260901214718 15 318 0.0 0.0 0.00 0.00 0.00 80 975.0
20260901214238 15 318 1.6 1.6 0.00 0.00 0.00 80 974.9
20260901213758 15 164 0.0 1.6 0.00 0.00 0.00 80 975.0
20260901213308 15 164 0.0 0.0 0.00 0.00 0.00 80 974.9
20260901212843 15 164 0.0 0.0 0.00 0.00 0.00 80 975.0
20260901212413 15 164 1.6 1.6 0.00 0.00 0.00 80 975.0
20260901211948 15 164 0.0 1.6 0.00 0.00 0.00 80 974.9
20260901211518 15 164 0.0 1.6 0.00 0.00 0.00 80 974.9
20260901211048 15 164 0.0 1.6 0.00 0.00 0.00 80 975.0
20260901210623 15 164 1.6 1.6 0.00 0.00 0.00 80 974.8
20260901210213 15 164 1.6 4.8 0.00 0.00 0.00 80 974.6
20260901205733 15 164 0.0 4.8 0.00 0.00 0.00 80 974.7
20260901205306 15 168 0.0 0.0 0.00 0.00 0.00 80 974.9
20260901204848 15 168 0.0 0.0 0.00 0.00 0.00 80 975.0
20260901204418 15 168 0.0 0.0 0.00 0.00 0.00 80 974.7
20260901203935 15 168 0.0 0.0 0.00 0.00 0.00 80 974.9
20260901203508 15 168 0.0 0.0 0.00 0.00 0.00 80 974.8
20260901203033 15 168 1.6 1.6 0.00 0.00 0.00 80 974.8
20260901202618 15 168 0.0 1.6 0.00 0.00 0.00 80 974.9
20260901202135 15 168 0.0 1.6 0.00 0.00 0.00 73 974.5
20260901201653 15 220 0.0 1.6 0.00 0.00 0.00 73 974.7
20260901201223 15 220 0.0 0.0 0.00 0.00 0.00 73 974.7
20260901200803 15 220 0.0 1.6 0.00 0.00 0.00 73 974.7
20260901200338 15 220 0.0 1.6 0.00 0.00 0.00 73 974.7
20260901195928 16 220 0.0 1.6 0.00 0.00 0.00 73 974.7
20260901195458 16 220 1.6 1.6 0.00 0.00 0.00 73 974.5
20260901195043 16 220 1.6 1.6 0.00 0.00 0.00 73 974.8
20260901194608 16 220 1.6 1.6 0.00 0.00 0.00 73 974.6
20260901194125 16 235 1.6 1.6 0.00 0.00 0.00 73 974.5
20260901193708 16 235 0.0 1.6 0.00 0.00 0.00 73 974.7
20260901193223 16 235 0.0 1.6 0.00 0.00 0.00 73 974.7
20260901192758 16 235 3.2 1.6 0.00 0.00 0.00 73 974.6
20260901192318 16 174 0.0 0.0 0.00 0.00 0.00 62 974.6
20260901191855 16 174 0.0 0.0 0.00 0.00 0.00 62 974.5
20260901191453 16 174 0.0 0.0 0.00 0.00 0.00 62 974.4
20260901191038 16 174 0.0 1.6 0.00 0.00 0.00 62 974.6
20260901190613 17 174 0.0 1.6 0.00 0.00 0.00 62 974.5
20260901190133 17 174 0.0 1.6 0.00 0.00 0.00 62 974.4
20260901185658 17 174 0.0 0.0 0.00 0.00 0.00 62 974.4
20260901185238 17 174 0.0 0.0 0.00 0.00 0.00 62 974.3
20260901184815 17 174 0.0 0.0 0.00 0.00 0.00 62 974.2
20260901184403 17 174 0.0 0.0 0.00 0.00 0.00 62 974.4
20260901183943 17 174 1.6 0.0 0.00 0.00 0.00 62 974.3
20260901183458 17 174 3.2 0.0 0.00 0.00 0.00 62 974.4
20260901183003 18 174 0.0 0.0 0.00 0.00 0.00 62 974.1
20260901182523 18 174 1.6 0.0 0.00 0.00 0.00 62 974.0
20260901182113 18 174 1.6 0.0 0.00 0.00 0.00 62 974.3
20260901181708 20 174 1.6 0.0 0.00 0.00 0.00 62 974.0
20260901181235 20 174 1.6 1.6 0.00 0.00 0.00 62 974.3
20260901180808 20 174 1.6 1.6 0.00 0.00 0.00 59 974.0
20260901180343 20 174 1.6 1.6 0.00 0.00 0.00 59 974.1
20260901175923 20 175 1.6 1.6 0.00 0.00 0.00 49 973.8
20260901175455 20 175 1.6 0.0 0.00 0.00 0.00 49 973.9
20260901175028 20 307 3.2 1.6 0.00 0.00 0.00 49 973.7
20260901174559 20 307 3.2 1.6 0.00 0.00 0.00 49 973.7
20260901174115 20 303 3.2 1.6 0.00 0.00 0.00 49 973.8
20260901173648 20 303 3.2 4.8 0.00 0.00 0.00 49 973.8
20260901173223 20 303 0.0 4.8 0.00 0.00 0.00 49 973.9
20260901172808 20 135 0.0 4.8 0.00 0.00 0.00 49 973.7
20260901172343 21 135 1.6 8.0 0.00 0.00 0.00 49 973.8
20260901171913 21 101 1.6 8.0 0.00 0.00 0.00 49 973.9
20260901171448 21 101 1.6 4.8 0.00 0.00 0.00 49 973.7
20260901171013 21 79 1.6 1.6 0.00 0.00 0.00 49 973.8
20260901170543 21 79 4.8 1.6 0.00 0.00 0.00 49 973.8
20260901170059 21 144 4.8 4.8 0.00 0.00 0.00 47 973.7
20260901165618 21 181 4.8 11.3 0.00 0.00 0.00 47 973.8
20260901165128 21 181 0.0 11.3 0.00 0.00 0.00 47 973.7
20260901164658 21 286 3.2 11.3 0.00 0.00 0.00 47 973.7
20260901164228 21 286 4.8 14.5 0.00 0.00 0.00 47 973.9
20260901163803 21 171 1.6 14.5 0.00 0.00 0.00 47 974.1
20260901163358 21 171 6.4 14.5 0.00 0.00 0.00 47 974.0
20260901162923 21 124 6.4 8.0 0.00 0.00 0.00 47 974.0
20260901162503 21 124 3.2 4.8 0.00 0.00 0.00 47 974.2
20260901162028 21 132 9.7 8.0 0.00 0.00 0.00 47 974.0
20260901161538 21 108 9.7 8.0 0.00 0.00 0.00 47 974.1
20260901161115 21 121 4.8 8.0 0.00 0.00 0.00 47 973.9
20260901160638 21 106 8.0 14.5 0.00 0.00 0.00 47 974.1
20260901160203 21 123 6.4 8.0 0.00 0.00 0.00 45 974.2
20260901155733 21 138 1.6 17.7 0.00 0.00 0.00 45 974.0
20260901155253 21 136 3.2 11.3 0.00 0.00 0.00 45 974.0
20260901154818 22 139 6.4 8.0 0.00 0.00 0.00 45 974.1
20260901154343 22 171 11.3 8.0 0.00 0.00 0.00 45 974.2
20260901153855 22 314 11.3 8.0 0.00 0.00 0.00 45 974.1
20260901153418 22 344 11.3 14.5 0.00 0.00 0.00 45 974.0
20260901152955 22 344 11.3 17.7 0.00 0.00 0.00 45 974.1
20260901152553 22 344 6.4 14.5 0.00 0.00 0.00 45 974.0
20260901152113 21 326 9.7 11.3 0.00 0.00 0.00 45 974.0
20260901151628 21 184 9.7 14.5 0.00 0.00 0.00 45 974.1
20260901151139 21 267 0.0 14.5 0.00 0.00 0.00 45 974.1
20260901150653 21 150 9.7 8.0 0.00 0.00 0.00 45 974.0
20260901150248 21 277 0.0 0.0 0.00 0.00 0.00 100 974.1
20260901145835 20 288 3.2 8.0 0.00 0.00 0.00 100 973.8
20260901145348 21 326 9.7 14.5 0.00 0.00 0.00 100 974.1
20260901144933 21 354 0.0 0.0 0.00 0.00 0.00 100 974.0
20260901144513 21 330 1.6 17.7 0.00 0.00 0.00 48 974.0
20260901144048 21 330 17.7 14.5 0.00 0.00 0.00 47 974.1
20260901143613 21 253 1.6 20.9 0.00 0.00 0.00 52 974.3
20260901143135 21 343 16.1 11.3 0.00 0.00 0.00 52 974.0
20260901142718 21 299 6.4 22.5 0.00 0.00 0.00 52 974.0
20260901142308 21 334 6.4 17.7 0.00 0.00 0.00 52 974.1
20260901141853 21 337 6.4 22.5 0.00 0.00 0.00 52 974.2
20260901141423 20 337 6.4 11.3 0.00 0.00 0.00 52 974.2
20260901140954 20 306 1.6 17.7 0.00 0.00 0.00 52 974.2
20260901140528 20 169 1.6 14.5 0.00 0.00 0.00 52 974.5
20260901140058 21 169 1.6 22.5 0.00 0.00 0.00 51 974.3
20260901135653 21 305 1.6 29.0 0.00 0.00 0.00 51 974.4
20260901135223 21 287 4.8 11.3 0.00 0.00 0.00 51 974.3
20260901134753 21 230 4.8 22.5 0.00 0.00 0.00 51 974.3
20260901134323 20 1 4.8 11.3 0.00 0.00 0.00 51 974.3
20260901133853 20 343 8.0 14.5 0.00 0.00 0.00 50 974.4
20260901133426 20 262 8.0 17.7 0.00 0.00 0.00 51 974.5
20260901133015 20 343 1.6 17.7 0.00 0.00 0.00 54 974.5
20260901132547 21 127 11.3 14.5 0.00 0.00 0.00 54 974.5
20260901132148 20 127 6.4 11.3 0.00 0.00 0.00 54 974.6
20260901131728 19 199 3.2 11.3 0.00 0.00 0.00 54 974.7
20260901131233 19 57 1.6 4.8 0.00 0.00 0.00 54 974.5
20260901130818 19 298 6.4 8.0 0.00 0.00 0.00 54 974.6
20260901130338 20 298 9.7 8.0 0.00 0.00 0.00 54 974.8
20260901125928 19 276 9.7 8.0 0.00 0.00 0.00 54 975.0
20260901125453 19 342 8.0 17.7 0.00 0.00 0.00 54 974.7
20260901125033 20 307 1.6 11.3 0.00 0.00 0.00 54 974.7
20260901124533 20 351 1.6 4.8 0.00 0.00 0.00 54 974.8
20260901124103 20 347 9.7 17.7 0.00 0.00 0.00 54 974.6
20260901123608 20 318 12.9 17.7 0.00 0.00 0.00 54 974.7
20260901123133 20 305 3.2 17.7 0.00 0.00 0.00 54 974.7
20260901122653 20 147 3.2 20.9 0.00 0.00 0.00 59 974.8
20260901122223 20 2 9.7 20.9 0.00 0.00 0.00 59 974.7
20260901121803 20 2 9.7 20.9 0.00 0.00 0.00 59 975.0
20260901121343 20 2 9.7 14.5 0.00 0.00 0.00 59 974.9
20260901120858 20 344 9.7 22.5 0.00 0.00 0.00 59 974.7
20260901120446 20 324 9.7 11.3 0.00 0.00 0.00 59 974.7
20260901120018 20 314 1.6 20.9 0.00 0.00 0.00 59 974.9
20260901115525 20 297 6.4 20.9 0.00 0.00 0.00 59 974.7
20260901115113 20 342 14.5 20.9 0.00 0.00 0.00 59 974.9
20260901114628 19 12 9.7 20.9 0.00 0.00 0.00 59 974.7
20260901114153 19 3 14.5 22.5 0.00 0.00 0.00 59 974.8
20260901113703 19 353 4.8 29.0 0.00 0.00 0.00 55 974.8
20260901113228 19 0 4.8 22.5 0.00 0.00 0.00 55 974.8
20260901112803 19 358 16.1 17.7 0.00 0.00 0.00 55 974.7
20260901112348 19 291 12.9 22.5 0.00 0.00 0.00 55 974.9
20260901111920 19 302 12.9 22.5 0.00 0.00 0.00 55 974.8
20260901111501 18 302 12.9 40.2 0.00 0.00 0.00 55 974.8
20260901111055 18 288 12.9 29.0 0.00 0.00 0.00 58 974.8
20260901110626 18 354 9.7 22.5 0.00 0.00 0.00 58 974.8
20260901110158 18 354 14.5 14.5 0.00 0.00 0.00 58 974.9
20260901105708 18 348 14.5 22.5 0.00 0.00 0.00 58 974.9
20260901105238 19 21 14.5 11.3 0.00 0.00 0.00 58 974.8
20260901104753 19 335 9.7 11.3 0.00 0.00 0.00 59 975.0
20260901104327 18 345 9.7 20.9 0.00 0.00 0.00 59 974.8
20260901103903 18 10 9.7 17.7 0.00 0.00 0.00 59 974.8
20260901103422 18 196 4.8 25.7 0.00 0.00 0.00 59 975.1
20260901102935 18 255 4.8 25.7 0.00 0.00 0.00 59 974.8
20260901102508 18 291 25.7 25.7 0.00 0.00 0.00 59 975.0
20260901102048 19 291 8.0 25.7 0.00 0.00 0.00 59 974.8
20260901101618 19 132 8.0 22.5 0.00 0.00 0.00 62 974.7
20260901101143 18 312 6.4 22.5 0.00 0.00 0.00 62 974.8
20260901100713 18 275 3.2 22.5 0.00 0.00 0.00 62 975.1
20260901100258 18 351 3.2 17.7 0.00 0.00 0.00 63 975.1
20260901095828 17 302 3.2 25.7 0.00 0.00 0.00 63 974.9
20260901095403 17 290 9.7 25.7 0.00 0.00 0.00 63 974.7
20260901094943 17 245 8.0 25.7 0.00 0.00 0.00 63 974.8
20260901094513 17 322 1.6 22.5 0.00 0.00 0.00 63 975.1
20260901094025 17 297 19.3 17.7 0.00 0.00 0.00 63 975.1
20260901093538 17 297 6.4 14.5 0.00 0.00 0.00 66 974.9
20260901093053 17 322 14.5 20.9 0.00 0.00 0.00 66 974.9
20260901092614 17 243 14.5 29.0 0.00 0.00 0.00 67 975.0
20260901092148 18 348 9.7 20.9 0.00 0.00 0.00 67 975.0